DW7346 Weather Reports


Display with metric or nautical units.
time (UTC)temp
F
wind
direction
speed
MPH
gust
MPH
rain 1hr
in
rain 24hr
in
rain mn
in
humidity
%
barometer
mb
20260508034520 63 185 0.0 0.0 0.00 0.00 0.00 72 1013.6
20260508033012 64 185 0.0 0.0 0.00 0.00 0.00 72 1013.4
20260508031509 64 185 0.0 0.0 0.00 0.00 0.00 71 1013.4
20260508030009 64 185 0.0 0.0 0.00 0.00 0.00 71 1013.3
20260508024513 65 185 0.0 2.0 0.00 0.00 0.00 70 1013.2
20260508023012 65 209 0.0 1.0 0.00 0.00 0.00 70 1012.9
20260508021507 66 209 0.0 1.0 0.00 0.00 0.00 69 1012.9
20260508020007 66 211 0.0 1.0 0.00 0.00 0.00 68 1012.7
20260508014507 67 214 0.0 2.0 0.00 0.00 0.00 67 1012.7
20260508013006 67 213 1.0 6.0 0.00 0.00 0.00 67 1012.7
20260508011506 68 193 1.0 5.0 0.00 0.00 0.00 66 1012.6
20260508010013 68 214 1.0 5.0 0.00 0.00 0.00 65 1012.8
20260508004503 68 165 1.0 6.0 0.00 0.00 0.00 64 1012.5
20260508003004 69 132 0.0 3.0 0.00 0.00 0.00 66 1012.4
20260508001501 70 191 2.0 5.0 0.00 0.00 0.00 62 1012.7
20260508000001 71 193 2.0 7.0 0.00 0.00 0.00 61 1013.0
20260507234601 72 91 1.0 5.0 0.00 0.00 0.00 59 1012.9
20260507233100 73 82 0.0 3.0 0.00 0.00 0.00 56 1012.8
20260507231614 73 31 0.0 0.0 0.00 0.00 0.00 56 1012.7
20260507230101 73 30 0.0 0.0 0.00 0.00 0.00 55 1012.9
20260507224556 72 11 0.0 4.0 0.00 0.00 0.00 54 1013.0
20260507223055 73 17 1.0 4.0 0.00 0.00 0.00 55 1013.1
20260507221601 73 349 0.0 2.0 0.00 0.00 0.00 55 1013.2
20260507220054 73 4 1.0 4.0 0.00 0.00 0.00 54 1013.2
20260507214551 74 5 1.0 3.0 0.00 0.00 0.00 53 1013.4
20260507213049 74 77 0.0 3.0 0.00 0.00 0.00 53 1013.6
20260507211556 75 113 1.0 4.0 0.00 0.00 0.00 52 1013.8
20260507210049 74 60 0.0 4.0 0.00 0.00 0.00 53 1013.9
20260507204546 75 179 1.0 4.0 0.00 0.00 0.00 55 1013.9
20260507203044 75 58 0.0 4.0 0.00 0.00 0.00 51 1013.9
20260507201541 75 9 1.0 6.0 0.00 0.00 0.00 52 1014.3
20260507200041 73 20 1.0 5.0 0.00 0.00 0.00 56 1014.5
20260507194539 74 27 3.0 6.0 0.00 0.00 0.00 51 1014.6
20260507193034 74 84 1.0 5.0 0.00 0.00 0.00 55 1014.9
20260507191531 73 55 2.0 7.0 0.00 0.00 0.00 56 1015.1
20260507190027 72 335 3.0 5.0 0.00 0.00 0.00 57 1015.4
20260507184526 71 338 3.0 7.0 0.00 0.00 0.00 57 1015.5
20260507183024 71 293 1.0 8.0 0.00 0.00 0.00 58 1015.6
20260507181522 70 56 1.0 6.0 0.00 0.00 0.00 61 1015.7
20260507180017 69 37 3.0 6.0 0.00 0.00 0.00 60 1016.2
20260507174538 69 345 4.0 11.0 0.00 0.00 0.00 60 1016.3
20260507173017 68 18 1.0 4.0 0.00 0.00 0.00 64 1016.9
20260507171512 68 9 4.0 7.0 0.00 0.00 0.00 62 1017.3
20260507170011 67 1 2.0 5.0 0.00 0.00 0.00 63 1017.7
20260507164509 67 316 1.0 4.0 0.00 0.01 0.00 66 1017.8
20260507163006 65 277 2.0 4.0 0.00 0.01 0.00 67 1017.9
20260507161505 65 6 2.0 7.0 0.00 0.01 0.00 69 1017.9
20260507160003 64 15 1.0 7.0 0.00 0.02 0.00 70 1017.9
20260507154600 64 6 0.0 7.0 0.00 0.02 0.00 70 1018.1
20260507153058 63 12 3.0 6.0 0.00 0.02 0.00 68 1018.1
20260507151559 62 345 2.0 7.0 0.00 0.02 0.00 73 1018.2
20260507150051 61 1 1.0 5.0 0.00 0.02 0.00 77 1018.5
20260507144551 60 334 0.0 6.0 0.00 0.02 0.00 80 1018.5
20260507143049 60 327 0.0 4.0 0.00 0.02 0.00 82 1018.5
20260507141543 59 351 1.0 4.0 0.00 0.02 0.00 84 1018.6
20260507140046 57 2 1.0 4.0 0.00 0.02 0.00 85 1018.8
20260507134541 55 23 0.0 3.0 0.00 0.02 0.00 88 1018.8
20260507133042 54 53 0.0 0.0 0.00 0.02 0.00 88 1019.1
20260507131606 53 53 0.0 0.0 0.00 0.02 0.00 90 1018.9
20260507130037 53 56 0.0 2.0 0.00 0.02 0.00 90 1018.8
20260507124540 52 246 0.0 1.0 0.00 0.02 0.00 91 1018.6
20260507123042 52 245 0.0 2.0 0.00 0.02 0.00 92 1018.5
20260507121532 51 262 0.0 0.0 0.00 0.02 0.00 92 1018.5
20260507120033 51 259 0.0 0.0 0.00 0.02 0.00 92 1018.1
20260507114528 52 6 0.0 0.0 0.00 0.02 0.00 92 1017.9
20260507113057 52 6 0.0 0.0 0.00 0.02 0.00 92 1017.8
20260507111526 52 8 0.0 2.0 0.00 0.02 0.00 91 1017.8
20260507110023 52 16 0.0 0.0 0.00 0.02 0.00 91 1017.9
20260507104521 53 16 0.0 0.0 0.00 0.02 0.00 91 1017.6
20260507103018 53 16 0.0 0.0 0.00 0.02 0.00 90 1017.4
20260507101521 53 16 0.0 0.0 0.00 0.02 0.00 89 1016.9
20260507100027 54 16 0.0 1.0 0.00 0.02 0.00 89 1016.7
20260507094509 54 16 1.0 4.0 0.00 0.02 0.00 89 1016.3
20260507093008 54 11 0.0 3.0 0.00 0.02 0.00 90 1016.3
20260507091506 54 11 1.0 4.0 0.00 0.02 0.00 89 1016.1
20260507090007 54 11 0.0 2.0 0.00 0.02 0.00 89 1016.2
20260507084507 55 11 0.0 0.0 0.00 0.02 0.00 88 1016.2
20260507083005 55 11 0.0 2.0 0.00 0.02 0.00 87 1016.2
20260507081600 55 11 0.0 3.0 0.00 0.02 0.00 87 1016.3
20260507080056 56 11 0.0 3.0 0.00 0.02 0.00 86 1016.1
20260507074555 56 8 2.0 4.0 0.00 0.02 0.00 86 1015.9
20260507073057 56 9 2.0 5.0 0.00 0.02 0.00 85 1015.8
20260507071551 56 4 1.0 6.0 0.00 0.02 0.00 84 1015.6
20260507064550 57 2 2.0 5.0 0.00 0.02 0.00 83 1015.7
20260507063053 57 9 1.0 6.0 0.00 0.02 0.00 82 1015.7
20260507061545 57 27 1.0 4.0 0.00 0.02 0.00 82 1015.4
20260507060045 57 51 0.0 3.0 0.00 0.02 0.00 82 1015.4
20260507054544 58 49 1.0 4.0 0.00 0.02 0.00 81 1015.3
20260507053040 58 41 1.0 6.0 0.00 0.02 0.00 81 1015.2
20260507051539 58 25 2.0 6.0 0.00 0.02 0.00 81 1015.2
20260507050059 58 18 0.0 3.0 0.00 0.02 0.00 80 1015.2
20260507044546 58 7 1.0 5.0 0.00 0.02 0.02 79 1015.4
20260507043036 58 6 2.0 8.0 0.00 0.02 0.02 78 1015.4
20260507041535 59 11 1.0 6.0 0.00 0.02 0.02 77 1015.5
20260507040034 59 22 2.0 8.0 0.00 0.02 0.02 77 1015.5